Regional Weather Roundup
Issued by NWS Albany, NY

Home | Current Version | Previous Version | Graphics & Text | Print | Product List | Glossary On
Versions: 1 2 3 4 5 6 7 8 9 10 11 12 13 14 15 16 17 18 19 20 21 22 23 24 25 26 27 28 29 30 31 32 33 34 35 36 37 38 39 40 41 42 43 44 45 46 47 48 49
000
ASUS41 KALY 290710
RWRALY

NEW YORK STATE HOURLY WEATHER ROUNDUP
NATIONAL WEATHER SERVICE ALBANY NY
300 AM EDT SAT AUG 29 2015

NOTE: "FAIR" INDICATES FEW OR NO CLOUDS BELOW 12,000 FEET WITH NO
SIGNIFICANT WEATHER AND/OR NO OBSTRUCTIONS TO VISIBILITY.

NYZ032-033-038>043-046>054-057>066-NYZ062>081-290800-
EAST


CITY           SKY/WX    TMP DP  RH WIND       PRES   REMARKS
ALBANY         MOCLDY    57  53  86 CALM      30.19S
GLENS FALLS    CLEAR     54  51  90 CALM      30.18F FOG
POUGHKEEPSIE   CLEAR     56  53  90 CALM      30.19S
NEWBURGH       CLEAR     57  55  94 CALM      30.21
MONTGOMERY     CLEAR     53  51  93 CALM      30.20S
WHITE PLAINS   CLEAR     60  55  83 NW5       30.19R
ISLIP          CLEAR     63  58  83 N5        30.17S
NEW YORK CITY  PTCLDY    72  55  55 CALM      30.18S
CENTRAL PARK   CLEAR     70  53  54 CALM      30.21S
$$

NYZ005>009-017-018-044>046-055-056-290800-
CENTRAL


CITY           SKY/WX    TMP DP  RH WIND       PRES   REMARKS
FULTON         MOCLDY    54  52  93 CALM      30.17F
SYRACUSE       MOCLDY    56  54  93 E5        30.17F
ROME           CLEAR     53  52  96 CALM      30.20F
ELMIRA         PTCLDY    50  50 100 CALM      30.20S FOG
BINGHAMTON     PTCLDY    56  53  90 CALM      30.21F
MONTICELLO     CLEAR     50  48  93 CALM      30.24S
$$

NYZ026>034-041>043-290800-
NORTH


CITY           SKY/WX    TMP DP  RH WIND       PRES   REMARKS
WATERTOWN      PTCLDY    57  52  83 CALM      30.15F
FORT DRUM      NOT AVBL
MASSENA        CLEAR     54  51  90 CALM      30.16S
SARANAC LAKE   CLEAR     43  41  93 CALM      30.19S
PLATTSBURGH    CLEAR     53  52  96 CALM      30.15F
$$

NYZ001>004-010>016-019>021-290800-
WEST


CITY           SKY/WX    TMP DP  RH WIND       PRES   REMARKS
NIAGARA FALLS  PTCLDY    58  54  86 CALM      30.15F
BUFFALO        MOCLDY    60  55  83 SE5       30.15F
DUNKIRK        MOCLDY    55  53  93 CALM      30.16F
JAMESTOWN      PTCLDY    55  54  94 S5        30.20F VSB 1
WELLSVILLE     PTCLDY    55  52  89 SW3       30.23F
ROCHESTER      PTCLDY    58  56  93 SW5       30.17F
PENN YAN       PTCLDY    59  56  89 SW7       30.19F
$$

             KEY
       WCI = WIND CHILL INDEX
       VSB = VISIBILITY
       HX  = HEAT INDEX
$$



USA.gov is the U.S. government's official web portal to all federal, state and local government web resources and services.